Aeroporto :
LOGIN :

Iscrizione | Disclaimer

   EN    FR    IT 

 










Sommario :    VFR   VFR Marginale   IFR   IFR Intensivo   IFR Molto Intensivo
Visibilità : 
Base nubi : 
>= 8 km
>= 3000ft
5 / 8 km
1000 / 3000 ft
1500m / 5 km
500 / 1000 ft
800 / 1500m
200 / 500 ft
< 800m
< 200 ft
Simboli :   Temporali  Nebbia  Neve Forte  Precipitazioni Forti  Vento > 20 kt
SIGMETs :   Varie  Temporali  Ghiacco  Turbolenza  Onda orograficha  Ceneri Vulcaniche







- Altitudine del aeroporto : 142 ft
- Codice IATA : FLR


LIRQ - Firenze Amerigo Vespucci

ULTIMO METAR :
  • 180650Z 19003KT 140V230 CAVOK 24/17 Q1015

METARs OBSOLETI :
  • 180620Z VRB01KT CAVOK 23/16 Q1015
  • 180550Z VRB02KT CAVOK 22/16 Q1015
  • 180520Z VRB01KT CAVOK 21/17 Q1015
  • 180450Z VRB01KT CAVOK 19/16 Q1014
  • 180420Z VRB01KT CAVOK 17/15 Q1014

TAF TAF LIRQ
Valido dal 18 a 06 ore il 19 a 06 ore UTC


180500Z 1806/1906 VRB05KT CAVOK
TEMPO 1813/1816 TSRA
Nessun NOTAM noto per questo aeroporto.



MetMap, La meteo Aeronautica in un colpo d'occhio ! - Copyright ORBIFLY Dicembre 2007 - Disclaimer

ORBIFLY MET'MAP TEAM :

Programmazione e sviluppo : Alexandra Zaïnal
Concezione e sviluppo : Baudouin d'Aumeries
Co-Programmazione e sviluppo : Marc-Olivier Méhu
Supporto tecnico e logistico : Manuel Goepfert
Aiuto per la traduzione : Arnaldo La Scala

Contatto : metmap@orbifly.com




FONTI E CREDITI :

   NOAA